Regional Weather Roundup
Issued by NWS

Home | Current Version | Previous Version | Graphics & Text | Print | Product List | Glossary Off
Versions: 1 2 3 4 5 6 7 8 9 10 11 12 13 14 15 16 17 18 19 20 21 22 23 24 25 26 27 28 29 30 31 32 33 34 35 36 37 38 39 40 41 42 43 44 45 46 47 48 49 50

000
ASUS43 KMPX 301201
RWRMN
WEATHER ROUNDUP FOR MINNESOTA
NATIONAL WEATHER SERVICE TWIN CITIES/CHANHASSEN MN
700 AM CDT WED JUL 30 2014


NOTE: "FAIR" INDICATES FEW OR NO CLOUDS BELOW 12,000 FEET WITH NO
SIGNIFICANT WEATHER AND/OR OBSTRUCTIONS TO VISIBILITY. N/A MEANS
CURRENT SKY AND/OR WEATHER CONDITIONS ARE NOT AVAILABLE.

MNZ060>063-068>070-301300-
   Twin Cities Metro

CITY           SKY/WX    TMP DP  RH WIND       PRES   REMARKS
TWIN CITIES    CLEAR     62  57  83 CALM      30.08S
6HR MIN TEMP:  60; 6HR MAX TEMP:  67;

ST PAUL        CLEAR     60  57  89 N3        30.08S
CRYSTAL        CLEAR     61  55  81 NW5       30.07S
BLAINE         CLEAR     57  57 100 CALM      30.08S
LAKEVILLE      CLEAR     57  55  94 CALM      30.08S
EDEN PRAIRIE   CLEAR     62  57  83 NW3       30.07S
6HR MIN TEMP:  58; 6HR MAX TEMP:  65;

SOUTH ST PAUL  CLEAR     60  57  89 CALM      30.08S
LAKE ELMO      FAIR      55  55 100 CALM      30.09S FOG
$$
MNZ001>005-007-008-013>017-022>024-027-028-301300-
   Northwest Minnesota

CITY           SKY/WX    TMP DP  RH WIND       PRES   REMARKS
BEMIDJI        CLEAR     55  53  93 W3        30.11S
HALLOCK        CLEAR     54  52  94 CALM      30.12S
ROSEAU         CLEAR     57  52  82 W5        30.10S
WARROAD        CLEAR     57  54  88 W5        30.09S
THIEF RVR FALL CLEAR     55  54  94 NW3       30.12S
CROOKSTON      CLEAR     54  52  94 CALM      30.13S
FOSSTON        CLEAR     50  48  93 CALM      30.13S FOG
DETROIT LAKES  CLEAR     59  54  82 NW3       30.14S
MOORHEAD       CLEAR     55  55 100 CALM      30.14S
PARK RAPIDS    CLEAR     52  51  97 W3        30.12R
$$
MNZ006-009>011-018-025>026-301300-
   North Central Minnesota

CITY           SKY/WX    TMP DP  RH WIND       PRES   REMARKS
BAUDETTE       CLEAR     59  55  87 VRB5      30.09R
FLAG ISLAND    CLEAR     63  57  82 W9        30.06S
INTL FALLS     PTSUNNY   52  51  97 CALM      30.05S
6HR MIN TEMP:  47; 6HR MAX TEMP:  53;

WASKISH        MOCLDY    63  57  82 NW5       30.09S
BIG FORK       SUNNY     50  48  93 SW1       30.09R
LONGVILLE      CLEAR     55  55 100 CALM      30.09S
GRAND RAPIDS   SUNNY     54  52  94 CALM      30.09S
CRANE LAKE     MOSUNNY   48  46  93 CALM        N/A  FOG
ORR            SUNNY     52  48  87 CALM      30.05S FOG
COOK           MOSUNNY   46  46 100 CALM      30.08S FOG
$$
MNZ012-019>021-037-301300-
   Northeast Minnesota

CITY           SKY/WX    TMP DP  RH WIND       PRES   REMARKS
DULUTH         MOSUNNY   52  50  93 CALM      30.08S
6HR MIN TEMP:  49; 6HR MAX TEMP:  57;

ELY            FOG       52  50  93 CALM      30.08S VSB<1/4
HIBBING        FOG       49  47  93 CALM      30.08S VSB 1/4
EVELETH        FOG       48  46  93 CALM      30.09S VSB<1/4
DULUTH HARBOR  SUNNY     55  55 100 CALM      30.09R
TWO HARBORS    SUNNY     52  46  82 NW5       30.06S
SILVER BAY     SUNNY     45  45 100 CALM      30.06S
GRAND MARAIS     N/A     51  50  96 CALM      30.05S
G MARAIS ARPRT SUNNY     45  43  93 CALM      30.07S
$$
MNZ029>031-032-039>041-046>048-054>057-064-301300-
   West Central Minnesota

CITY           SKY/WX    TMP DP  RH WIND       PRES   REMARKS
FERGUS FALLS   CLEAR     55  52  88 CALM      30.14R
WHEATON        CLEAR     54  54 100 CALM      30.16R
MORRIS         CLEAR     54  52  94 NW5       30.13S FOG
ALEXANDRIA     CLEAR     60  56  86 W3        30.14S
ELBOW LAKE     FAIR      56  54  93 NW5       30.14R
WADENA         CLEAR     55  54  94 CALM      30.12S
GLENWOOD       CLEAR     57  55  94 W5        30.13S
APPLETON       CLEAR     54  52  94 CALM      30.13S
BENSON           N/A     52  52 100 CALM      30.13S
ORTONVILLE     CLEAR     57  55  94 NW5       30.13S
MADISON        CLEAR     54  52  94 W3        30.14S
WILLMAR        FAIR      55  54  94 CALM      30.13S
$$
MNZ033>034-036-042>043-049>051-058-059-301300-
   Central Minnesota

CITY           SKY/WX    TMP DP  RH WIND       PRES   REMARKS
ST CLOUD       CLEAR     60  55  83 NW5       30.09S
6HR MIN TEMP:  57; 6HR MAX TEMP:  61;

SAUK CENTRE    FAIR      54  52  95 W3        30.12S
PAYNESVILLE    CLEAR     52  52 100 SW5       30.12R
AITKIN         PTCLDY    55  48  76 CALM      30.08S HAZE
PINE RIVER     CLEAR     55  55 100 CALM      30.13S
BRAINERD       CLEAR     54  53  97 CALM      30.10S
STAPLES        CLEAR     54  52  94 CALM      30.12R
LONG PRAIRIE   FAIR      55  54  94 CALM      30.13R
LITTLE FALLS   CLEAR     52  50  93 CALM      30.11R
LITCHFIELD     CLEAR     63  57  82 NW6       30.11S
BUFFALO        CLEAR     61  55  80 NW5       30.10R
MAPLE LAKE     CLEAR     61  57  85 NW3       30.10S
$$
MNZ037-044-045-052-053-301300-
   East Central Minnesota

CITY           SKY/WX    TMP DP  RH WIND       PRES   REMARKS
PRINCETON      CLEAR     54  54 100 CALM      30.09S FOG
MORA           CLEAR     54  52  94 CALM      30.10S
CAMBRIDGE      CLEAR     57  50  77 CALM      30.07S
RUSH CITY      SUNNY     53  51  96 CALM      30.09R FOG
MOOSE LAKE       N/A     52  50  93 CALM      30.07S FOG
HINCKLEY       FAIR      54  54 100 CALM      30.09R
CLOQUET        SUNNY     52  48  87 CALM      30.09R FOG
MCGREGOR       SUNNY     52  52 100 CALM      30.10R
$$
MNZ071>073-080-081-089-090-097-098-301300-
   Southwest Minnesota

CITY           SKY/WX    TMP DP  RH WIND       PRES   REMARKS
MONTEVIDEO     CLEAR     55  54  94 NW6       30.14S
GRANITE FALLS  CLEAR     51  51  97 W7        30.14S
CANBY          CLEAR     55  52  89 W6        30.15S
MARSHALL       CLEAR     54  48  82 NW5       30.13R
REDWOOD FALLS  CLEAR     56  54  93 NW6       30.12R
OLIVIA         CLEAR     55  52  88 NW5       30.11S
PIPESTONE      CLEAR     57  52  82 CALM      30.16R
WINDOM         CLEAR     55  52  88 W3        30.14R
WORTHINGTON    CLEAR     52  48  87 W5        30.16R
JACKSON        CLEAR     54  50  87 W3        30.14R
TRACY          CLEAR     59  53  79 W7        30.14S
SLAYTON        CLEAR     55  52  90 CALM      30.16R
$$
MNZ065>067-074>077-082>085-091>093-301300-
   South Central Minnesota

CITY           SKY/WX    TMP DP  RH WIND       PRES   REMARKS
MANKATO        CLEAR     55  52  88 W5        30.10S
NEW ULM        CLEAR     54  54 100 W5        30.11S
ST JAMES       CLEAR     57  54  88 NW5       30.13R FOG
FAIRMONT       CLEAR     57  50  77 NW7       30.12R
GLENCOE        CLEAR     59  54  83 CALM      30.09S
FARIBAULT      CLEAR     57  54  88 CALM      30.09S
OWATONNA       CLEAR     54  52  94 CALM      30.09F
WASECA         CLEAR     50  46  87 CALM      30.11S FOG
ALBERT LEA     CLEAR     57  54  88 CALM      30.10R
$$
MNZ078>079-086>088-094>096-301300-
   Southeast Minnesota

CITY           SKY/WX    TMP DP  RH WIND       PRES   REMARKS
ROCHESTER      CLEAR     57  54  89 NW7       30.10R
6HR MIN TEMP:  56; 6HR MAX TEMP:  62;

RED WING       SUNNY     55  54  94 CALM      30.07S FOG
STANTON        CLEAR     55  53  92 CALM      30.07S
DODGE CENTER   CLEAR     59  55  88 NW5       30.09S
WINONA         MOSUNNY   59  57  94 NW5       30.07S
AUSTIN         CLEAR     55  54  94 NW5       30.09R
PRESTON        CLEAR     57  57 100 N7        30.09R
$$
ABBREVIATIONS USED IN REMARKS
   TC - TEMPERATURES IN CELSIUS
  WCI - WIND CHILL INDEX
   HX - HEAT INDEX
  VSB - VISIBILITY
$$



USA.gov is the U.S. government's official web portal to all federal, state and local government web resources and services.